Location: Narrabri
(30.3170°S, 149.7830°E)
Time: 02:31:20
(UTC+10:00)

Vanguard 3 - All Passes

Search period start: 22 June 2018 00:00
Search period end: 02 July 2018 00:00
Orbit: 508 x 3264 km, 33.3° (Epoch: 21 June)

Date Brightness Start Highest point End Pass type
(mag) Time Alt. Az. Time Alt. Az. Time Alt. Az.
22 Jun - 10:52:35 10° NNW 11:09:27 37° NE 11:24:50 10° E daylight
22 Jun - 13:05:41 10° NW 13:25:39 72° NNE 13:39:56 10° ESE daylight
22 Jun - 15:23:36 10° W 15:41:53 81° S 15:52:34 10° E daylight
22 Jun - 17:42:54 10° WSW 17:56:49 83° S 18:04:17 10° E visible
22 Jun - 20:00:34 10° WSW 20:09:15 43° NW 20:14:24 10° NE visible
23 Jun - 09:39:52 10° N 09:53:16 24° NE 10:06:51 10° E daylight
23 Jun - 11:49:44 10° NW 12:08:54 57° NNE 12:24:53 10° ESE daylight
23 Jun - 14:05:37 10° WNW 14:25:31 90° NNE 14:38:32 10° ESE daylight
23 Jun - 16:24:48 10° W 16:41:31 78° S 16:50:50 10° E daylight
23 Jun - 18:43:28 10° WSW 18:55:27 72° NNW 19:01:56 10° ENE visible
23 Jun - 21:01:46 10° W 21:06:19 17° NW 21:09:46 10° N visible
24 Jun - 08:31:20 10° NNE 08:37:29 12° NE 08:43:53 10° ENE daylight
24 Jun - 10:35:08 10° NNW 10:52:18 42° NE 11:08:48 10° E daylight
24 Jun - 12:48:30 10° WNW 13:08:43 77° NNE 13:23:59 10° ESE daylight
24 Jun - 15:06:29 10° W 15:25:28 80° S 15:36:59 10° E daylight
24 Jun - 17:25:49 10° WSW 17:40:49 88° SSE 17:48:53 10° ENE visible
24 Jun - 19:43:58 10° WSW 19:53:14 38° NW 19:58:46 10° NNE visible
25 Jun - 09:22:10 10° N 09:36:08 28° NE 09:51:01 10° E daylight
25 Jun - 11:32:34 10° NW 11:51:45 62° NNE 12:08:46 10° ESE daylight
25 Jun - 13:48:32 10° WNW 14:08:47 87° SSW 14:22:43 10° ESE daylight
25 Jun - 16:07:41 10° W 16:25:18 80° S 16:35:20 10° E daylight
25 Jun - 18:26:29 10° WSW 18:39:25 66° NNW 18:46:27 10° NE visible
25 Jun - 20:45:52 10° W 20:50:11 15° NW 20:53:33 10° NNW visible
26 Jun - 08:12:10 10° NNE 08:20:32 15° NE 08:29:39 10° ENE daylight
26 Jun - 10:17:57 10° NNW 10:35:03 47° NE 10:52:35 10° ESE daylight
26 Jun - 12:31:29 10° WNW 12:51:42 82° NNE 13:07:56 10° ESE daylight
26 Jun - 14:49:24 10° W 15:08:59 79° S 15:21:20 10° E daylight
26 Jun - 17:08:41 10° WSW 17:24:40 87° NNW 17:33:25 10° ENE daylight
26 Jun - 19:27:17 10° W 19:37:05 35° NW 19:43:03 10° NNE visible
27 Jun - 09:04:50 10° NNW 09:18:57 32° NE 09:34:53 10° E daylight
27 Jun - 11:15:36 10° NW 11:34:33 67° NNE 11:52:30 10° ESE daylight
27 Jun - 13:31:34 10° WNW 13:52:01 85° S 14:06:51 10° ESE daylight
27 Jun - 15:50:32 10° W 16:08:59 82° S 16:19:48 10° E daylight
27 Jun - 18:09:26 10° WSW 18:23:15 60° NNW 18:30:53 10° NE visible
27 Jun - 20:30:05 10° WNW 20:33:58 13° NW 20:37:08 10° NNW visible
28 Jun - 07:54:04 10° NNE 08:03:31 18° NE 08:14:23 10° E daylight
28 Jun - 10:00:59 10° NW 10:17:47 51° NE 10:36:08 10° ESE daylight
28 Jun - 12:14:37 10° WNW 12:34:40 86° NNE 12:51:49 10° ESE daylight
28 Jun - 14:32:23 10° W 14:52:24 80° S 15:05:38 10° E daylight
28 Jun - 16:51:30 10° WSW 17:08:24 82° NNW 17:17:52 10° ENE daylight
28 Jun - 19:10:33 10° W 19:20:49 32° NW 19:27:13 10° NNE visible
29 Jun - 08:47:47 10° NNW 09:01:44 35° NE 09:18:29 10° E daylight
29 Jun - 10:58:50 10° NW 11:17:20 72° NNE 11:36:06 10° ESE daylight
29 Jun - 13:14:42 10° W 13:35:10 83° S 13:50:53 10° E daylight
29 Jun - 15:33:24 10° WSW 15:52:33 85° SSE 16:04:11 10° ENE daylight
29 Jun - 17:52:21 10° WSW 18:06:56 55° NW 18:15:12 10° NE visible
29 Jun - 20:14:33 10° WNW 20:17:39 12° NW 20:20:19 10° NW visible
30 Jun - 07:36:32 10° N 07:46:29 21° NE 07:58:33 10° E daylight
30 Jun - 09:44:15 10° NW 10:00:31 56° NE 10:19:34 10° ESE daylight
30 Jun - 11:57:56 10° WNW 12:17:36 89° NNE 12:35:34 10° ESE daylight
30 Jun - 14:15:25 10° W 14:35:45 81° S 14:49:50 10° E daylight
30 Jun - 16:34:17 10° WSW 16:52:00 77° NNW 17:02:13 10° ENE daylight
30 Jun - 18:53:48 10° W 19:04:26 29° NW 19:11:16 10° N visible
01 Jul - 08:30:59 10° NNW 08:44:31 39° NE 09:01:52 10° ESE daylight
01 Jul - 10:42:14 10° WNW 11:00:08 77° NNE 11:19:35 10° ESE daylight
01 Jul - 12:57:58 10° W 13:18:18 82° S 13:34:52 10° E daylight
01 Jul - 15:16:16 10° WSW 15:35:59 89° SSE 15:48:28 10° ENE daylight
01 Jul - 17:35:14 10° WSW 17:50:28 50° NW 17:59:25 10° NE visible
01 Jul - 19:59:53 10° WNW 20:01:15 10° NW 20:02:32 10° NW visible
